Weather observations for the past three days for
Charlevoix, Charlevoix Municipal Airport
Imperial (Metric)
Date Time (edt) Wind (mph) Vis. (mi.) Weather Sky Cond. Temperature (ºF) Relative Humidity Wind Chill (°F) Heat Index (°F) Pressure Precipitation (in)
Air Dwpt 6 hour altimeter (in) sea level (mb) 1 hr 3 hr 6 hr
Max. Min.
14 10:35 SW 7 10.00 Fair CLR 77.9 66.4 68% 80 29.87 0.0
14 10:15 SW 9 10.00 Partly Cloudy SCT026 76.5 66.7 72% 78 29.88 0.0
14 09:55 SW 9 10.00 Partly Cloudy SCT026 74.3 66.6 77% 29.89 0.0
14 09:35 SW 10 G 21 10.00 Partly Cloudy SCT026 SCT038 73.8 67.1 80% 29.89 0.0
14 09:15 SW 14 G 18 10.00 Mostly Cloudy BKN042 72.5 67.8 85% 29.9 0.0
14 08:55 SW 13 10.00 Overcast SCT031 OVC042 71.8 68 88% 29.91 0.0
14 08:35 SW 8 10.00 Overcast OVC033 72 68 87% 29.91 0.0
14 08:15 SW 9 G 16 10.00 Overcast OVC035 71.6 67.8 88% 29.91 0.0
14 07:55 SW 8 G 16 10.00 Mostly Cloudy BKN035 BKN041 71.2 68 72.5 68.9 90% 29.92 0.0
14 07:35 SW 8 10.00 Partly Cloudy SCT035 70.7 68.4 92% 29.9 0.0
14 07:15 SW 7 10.00 Fair CLR 70.7 68.2 92% 29.91 0.0
14 06:55 SW 7 10.00 Fair CLR 70.2 68 93% 29.91 0.0
14 06:35 S 7 10.00 Fair CLR 69.3 67.1 93% 29.9 0.0
14 06:15 S 5 10.00 Partly Cloudy SCT070 69.1 66.7 92% 29.91 0.0
14 05:55 S 5 10.00 Mostly Cloudy SCT046 BKN070 BKN090 69.4 67.1 92% 29.91 0.0
14 05:35 SE 3 10.00 Overcast SCT037 BKN060 OVC100 69.3 67.1 93% 29.91 0.0
14 05:15 Calm 10.00 Overcast SCT060 SCT075 OVC100 69.4 67.1 92% 29.92 0.0
14 04:55 SE 3 10.00 Overcast BKN090 OVC110 69.3 67.1 93% 29.91 0.0
14 04:35 SE 6 10.00 Light Drizzle SCT035 SCT047 OVC090 69.3 67.1 93% 29.91 0.0
14 04:15 SE 8 7.00 Rain SCT033 BKN065 OVC100 69.4 66.2 90% 29.91 0.0
14 03:55 SE 5 10.00 Overcast SCT035 BKN065 OVC090 71.1 63.5 77% 29.92 0.0
14 03:35 Calm 10.00 Mostly Cloudy BKN065 BKN075 BKN090 72.1 62.8 73% 29.92 0.0
14 03:15 Calm 10.00 Mostly Cloudy SCT048 BKN060 BKN075 72.3 60.8 67% 29.93 0.0
14 02:55 S 3 10.00 Mostly Cloudy SCT039 BKN045 BKN050 71.8 60.1 67% 29.93 0.0
14 02:35 SE 5 10.00 Mostly Cloudy SCT040 BKN047 BKN055 71.6 58.6 64% 29.94 0.0
14 02:15 E 3 10.00 Partly Cloudy SCT055 71.4 59 65% 29.94 0.0
14 01:55 Calm 10.00 Fair CLR 70.7 61 78.8 70.7 71% 29.96 0.0
14 01:35 SE 3 10.00 Fair CLR 70.9 61.7 73% 29.97 0.0
14 01:15 E 3 10.00 Fair CLR 70.9 61.5 72% 29.98 0.0
14 00:55 SE 3 10.00 Fair CLR 70.7 62.2 75% 29.99 0.0
14 00:35 SE 3 10.00 Fair CLR 70.9 62.2 74% 30 0.0
14 00:15 E 3 10.00 Fair CLR 71.4 61.7 72% 30.01 0.0
13 23:55 SE 3 10.00 Fair CLR 71.8 61 69% 30.01 0.0
13 23:35 SE 3 10.00 Fair CLR 71.8 60.3 67% 30.01 0.0
13 23:15 SE 3 10.00 Fair CLR 71.4 59.4 66% 30.02 0.0
13 22:55 Calm 10.00 Fair CLR 71.6 59.2 65% 30.03 0.0
13 22:35 Calm 10.00 Fair CLR 72 60.1 66% 30.03 0.0
13 22:15 Calm 10.00 Fair CLR 71.6 60.8 69% 30.03 0.0
13 21:55 Calm 10.00 Fair CLR 72.5 59.5 64% 30.04 0.0
13 21:35 Calm 10.00 Fair CLR 73.6 59.4 61% 30.02 0.0
13 21:15 Calm 10.00 Fair CLR 75.7 58.3 55% 78 30.02 0.0
13 20:55 SE 3 10.00 Fair CLR 76.8 58.1 53% 79 30.03 0.0
13 20:35 Calm 10.00 Fair CLR 77 57.6 51% 79 30.04 0.0
13 20:15 Calm 10.00 Fair CLR 78.6 57.4 48% 80 30.04 0.0
13 19:55 W 5 10.00 Fair CLR 78.6 55.9 86.2 77.5 46% 79 30.04 0.0
13 19:35 SW 5 10.00 Fair CLR 79.7 54.5 42% 80 30.04 0.0
13 19:15 SW 7 10.00 Fair CLR 79 53.2 41% 79 30.05 0.0
13 18:55 SW 8 10.00 Fair CLR 79.5 56.7 46% 80 30.06 0.0
13 18:35 W 9 10.00 Fair CLR 78.8 59 51% 80 30.06 0.0
13 18:15 W 9 10.00 Fair CLR 79 58.3 49% 80 30.07 0.0
13 17:55 W 10 10.00 Fair CLR 77.5 58.3 52% 79 30.09 0.0
13 17:35 W 13 G 17 10.00 Fair CLR 80.2 57.9 47% 81 30.09 0.0
13 17:15 W 14 10.00 Fair CLR 81 57.4 45% 81 30.1 0.0
13 16:55 W 13 10.00 Fair CLR 82.9 57.2 42% 82 30.1 0.0
13 16:35 W 8 10.00 Fair CLR 82.8 59.7 46% 83 30.09 0.0
13 16:15 W 9 10.00 Fair CLR 85.3 61.3 45% 86 30.1 0.0
13 15:55 W 8 10.00 Fair CLR 86 60.6 43% 86 30.11 0.0
13 15:35 W 8 10.00 Fair CLR 85.8 61.3 44% 86 30.11 0.0
13 15:15 W 8 10.00 Fair CLR 85.5 60.8 44% 86 30.11 0.0
13 14:55 W 7 10.00 Fair CLR 85.8 61.3 44% 86 30.12 0.0
13 14:35 W 8 10.00 Fair CLR 85.1 60.8 44% 85 30.13 0.0
13 14:15 W 10 10.00 Fair CLR 85.1 60.8 44% 85 30.13 0.0
13 13:55 SW 8 10.00 Fair CLR 85.1 60.6 85.3 69.1 44% 85 30.13 0.0
13 13:35 SW 6 10.00 Fair CLR 83.8 59.7 44% 84 30.14 0.0
13 13:15 SW 8 10.00 Fair CLR 83.5 59.7 45% 84 30.14 0.0
13 12:55 SW 7 10.00 Fair CLR 83.3 60.8 47% 84 30.14 0.0
13 12:35 SW 8 10.00 Fair CLR 82.9 61 48% 83 30.15 0.0
13 12:15 SW 8 10.00 Fair CLR 82.8 60.8 48% 83 30.15 0.0
13 11:55 SW 10 10.00 Fair CLR 81.9 59.7 47% 82 30.15 0.0
13 11:35 SW 12 10.00 Fair CLR 82.2 60.8 48% 83 30.15 0.0
13 11:15 SW 8 10.00 Fair CLR 81 59.7 49% 82 30.15 0.0
13 10:55 SW 7 10.00 Fair CLR 80.2 59 48% 81 30.15 0.0
13 10:35 SW 8 10.00 Fair CLR 79.7 58.3 48% 80 30.15 0.0
13 10:15 SW 8 10.00 Fair CLR 79.2 58.3 49% 80 30.15 0.0
13 09:55 SW 9 10.00 Fair CLR 78.4 59 51% 80 30.15 0.0
13 09:35 SW 5 10.00 Fair CLR 77 58.5 53% 79 30.15 0.0
13 09:15 Calm 10.00 Fair CLR 75.9 58.1 54% 78 30.15 0.0
13 08:55 SE 3 10.00 Fair CLR 73.8 57.7 57% 30.15 0.0
13 08:35 SE 5 10.00 Fair CLR 72.5 58.1 61% 30.15 0.0
13 08:15 Calm 10.00 Fair CLR 70.5 59 67% 30.15 0.0
13 07:55 Calm 10.00 Fair CLR 68.5 59.7 68.5 64.8 74% 30.15 0.0
13 07:35 E 3 10.00 Fair CLR 67.1 59.5 77% 30.14 0.0
13 07:15 E 3 10.00 Fair CLR 65.8 60.1 82% 30.14 0.0
13 06:55 Calm 10.00 Fair CLR 65.3 60.3 84% 30.14 0.0
13 06:35 Calm 10.00 Fair CLR 65.3 60.4 84% 30.13 0.0
13 06:15 Calm 10.00 Fair CLR 65.5 60.8 85% 30.13 0.0
13 05:55 E 6 10.00 Fair CLR 66.2 60.6 82% 30.13 0.0
13 05:35 Calm 10.00 Fair CLR 65.3 60.4 84% 30.12 0.0
13 05:15 SE 3 10.00 Partly Cloudy SCT085 65.8 62.2 88% 30.12 0.0
13 04:55 E 3 10.00 Mostly Cloudy BKN085 66.2 62.2 87% 30.12 0.0
13 04:35 Calm 10.00 Mostly Cloudy BKN085 66.2 62.8 89% 30.11 0.0
13 04:15 SE 3 10.00 Overcast BKN075 OVC090 65.7 63.5 93% 30.11 0.0
13 03:55 E 3 10.00 Mostly Cloudy BKN075 66.2 63.9 92% 30.12 0.0
13 03:35 E 3 10.00 Fair CLR 65.5 63.5 93% 30.11 0.0
13 03:15 SE 3 10.00 Fair CLR 64.8 62.6 93% 30.12 0.0
13 02:55 SE 5 10.00 Fair CLR 65.5 63.3 93% 30.12 0.0
13 02:35 Calm 10.00 Fair CLR 66.4 63.5 91% 30.13 0.0
13 02:15 Calm 10.00 Partly Cloudy SCT100 65.8 62.6 89% 30.14 0.0
13 01:55 E 3 10.00 Partly Cloudy SCT100 66.7 62.6 76.1 65.8 87% 30.14 0.0
13 01:35 Calm 10.00 Partly Cloudy SCT080 SCT100 66.6 62.6 87% 30.14 0.0
13 01:15 SE 3 10.00 Partly Cloudy SCT080 67.3 62.1 83% 30.14 0.0
13 00:55 SE 3 10.00 Partly Cloudy SCT100 67.1 60.4 79% 30.14 0.0
13 00:35 SE 3 10.00 Partly Cloudy SCT090 67.3 59.7 77% 30.14 0.0
13 00:15 Calm 10.00 Mostly Cloudy BKN090 67.6 59 74% 30.14 0.0
12 23:55 Calm 10.00 Mostly Cloudy BKN090 67.6 59 74% 30.14 0.0
12 23:35 Calm 10.00 Fair CLR 68.5 58.6 71% 30.14 0.0
12 23:15 Calm 10.00 Fair CLR 69.1 57.6 67% 30.12 0.0
12 22:55 Calm 10.00 Fair CLR 70.2 56.5 62% 30.12 0.0
12 22:35 S 5 10.00 Fair CLR 70.7 56.3 60% 30.11 0.0
12 22:15 SW 5 10.00 Fair CLR 70.9 55.4 58% 30.11 0.0
12 21:55 Calm 10.00 Fair CLR 71.2 54.1 55% 30.11 0.0
12 21:35 SW 5 10.00 Fair CLR 71.8 53.6 53% 30.11 0.0
12 21:15 SW 5 10.00 Fair CLR 72.5 53.8 52% 30.1 0.0
12 20:55 SW 6 10.00 Fair CLR 73.9 55.2 52% 30.1 0.0
12 20:35 SW 3 10.00 Fair CLR 74.5 55.6 52% 30.1 0.0
12 20:15 SW 6 10.00 Fair CLR 75.6 55.4 50% 78 30.1 0.0
12 19:55 SW 6 10.00 Fair CLR 76.5 55.2 84.4 76.5 48% 78 30.1 0.0
12 19:35 SW 7 10.00 Fair CLR 77.9 56.3 47% 79 30.09 0.0
12 19:15 SW 7 10.00 Fair CLR 78.8 55.9 45% 80 30.09 0.0
12 18:55 W 8 10.00 Fair CLR 79.7 56.8 46% 80 30.09 0.0
12 18:35 SW 8 10.00 Fair CLR 79.9 56.7 45% 80 30.09 0.0
12 18:15 SW 12 10.00 Fair CLR 80.2 57 45% 81 30.09 0.0
12 17:55 W 10 G 18 10.00 Fair CLR 81 57.7 45% 81 30.1 0.0
12 17:35 W 8 10.00 Fair CLR 82.2 56.7 42% 82 30.1 0.0
12 17:15 W 9 G 16 10.00 Fair CLR 81.9 57.4 43% 82 30.11 0.0
12 16:55 W 8 10.00 Fair CLR 82.4 59.7 46% 83 30.12 0.0
12 16:35 W 12 10.00 Fair CLR 83.5 59 44% 83 30.11 0.0
12 16:15 W 9 10.00 Fair CLR 84.4 59.5 43% 84 30.11 0.0
12 15:55 SW 9 G 17 10.00 Fair CLR 83.5 59.7 45% 84 30.11 0.0
12 15:35 SW 9 10.00 Fair CLR 82.4 60.1 47% 83 30.11 0.0
12 15:15 W 10 10.00 Partly Cloudy SCT060 83.5 59 44% 83 30.12 0.0
12 14:55 SW 8 10.00 Fair CLR 82.8 58.6 44% 83 30.12 0.0
12 14:35 SW 5 10.00 Fair CLR 83.1 59.7 45% 83 30.12 0.0
12 14:15 SW 6 10.00 Fair CLR 79.7 57.9 47% 80 30.13 0.0
12 13:55 S 8 10.00 Fair CLR 82.4 58.5 82.4 65.7 44% 82 30.13 0.0
12 13:35 SW 8 10.00 Fair CLR 81.5 58.1 45% 82 30.13 0.0
12 13:15 SW 9 10.00 Fair CLR 81.7 58.3 45% 82 30.13 0.0
12 12:55 SW 7 10.00 Fair CLR 81.1 59.2 47% 82 30.13 0.0
12 12:35 SW 5 10.00 Fair CLR 80.4 58.5 47% 81 30.13 0.0
12 12:15 S 7 10.00 Fair CLR 78.8 59.5 52% 80 30.13 0.0
12 11:55 S 5 10.00 Fair CLR 77.7 62.4 59% 79 30.13 0.0
12 11:35 SE 7 10.00 Fair CLR 75.7 61.5 61% 78 30.13 0.0
12 11:15 SW 6 10.00 Fair CLR 75.2 62.4 65% 77 30.13 0.0
12 10:55 SE 5 10.00 Fair CLR 73.9 64 71% 30.13 0.0
12 10:35 SE 5 10.00 Fair CLR 71.6 64 77% 30.13 0.0
12 10:15 SE 5 10.00 Fair CLR 69.8 64.9 85% 30.13 0.0
12 09:55 SE 3 10.00 Fair CLR 68.2 64.9 89% 30.14 0.0
12 09:35 SE 3 10.00 Fair CLR 66.2 63.9 92% 30.14 0.0
12 09:15 SE 3 10.00 Fair CLR 66.4 64.4 93% 30.14 0.0
12 08:55 SE 3 10.00 Fair CLR 66.4 64.4 93% 30.14 0.0
12 08:35 E 3 10.00 Fair CLR 66.4 64.4 93% 30.14 0.0
12 08:15 Calm 10.00 Fair CLR 67.1 64.8 92% 30.13 0.0
12 07:55 E 3 10.00 Fair CLR 65.5 63.5 65.5 61.3 93% 30.13 0.0
12 07:35 Calm 10.00 Fair CLR 63.9 61.7 93% 30.12 0.0
12 07:15 Calm 7.00 Fair CLR 62.4 60.3 93% 30.12 0.0
12 06:55 SE 5 2.00 Fog/Mist CLR 61.3 59.2 93% 30.12 0.0
12 06:35 Calm 0.50 Fog BKN001 61.5 59.2 92% 30.12 0.0
12 06:15 Calm 0.15 Fog OVC001 62.2 60.1 93% 30.12 0.0
12 05:55 Calm 0.50 Fog OVC001 63 60.8 93% 30.11 0.0
12 05:35 Calm 0.15 Fog OVC001 63.5 61.5 93% 30.11 0.0
12 05:15 SW 3 0.75 Fog/Mist OVC001 63 60.6 92% 30.11 0.0
12 04:55 Calm 7.00 Partly Cloudy SCT031 62.4 60.1 92% 30.11 0.0
12 04:35 Calm 5.00 Fog/Mist CLR 61.7 59.4 92% 30.11 0.0
12 04:15 Calm 7.00 Fair CLR 62.8 60.8 93% 30.1 0.0
12 03:55 Calm 7.00 Fair CLR 62.8 60.6 93% 30.09 0.0
12 03:35 Calm 7.00 Fair CLR 63.5 61.2 92% 30.09 0.0
12 03:15 Calm 4.00 Fog/Mist CLR 63.5 61.3 93% 30.1 0.0
12 02:55 Calm 5.00 Fog/Mist CLR 64.2 62.1 93% 30.1 0.0
12 02:35 Calm 7.00 Partly Cloudy SCT046 64.9 62.8 93% 30.1 0.0
12 02:15 Calm 7.00 Mostly Cloudy BKN048 65.3 63 92% 30.1 0.0
12 01:55 W 3 10.00 Mostly Cloudy BKN048 64.2 61.9 71.2 64 92% 30.1 0.0
12 01:35 Calm 7.00 Mostly Cloudy SCT041 BKN048 64.6 62.4 93% 30.1 0.0
12 01:15 Calm 10.00 Mostly Cloudy SCT041 BKN048 64.6 62.4 93% 30.1 0.0
12 00:55 Calm 7.00 Partly Cloudy SCT005 64.6 62.4 93% 30.1 0.0
12 00:35 Calm 10.00 Partly Cloudy SCT003 67.1 64.9 93% 30.11 0.0
12 00:15 Calm 10.00 Partly Cloudy SCT003 64.4 62.2 93% 30.11 0.0
11 23:55 Calm 10.00 Fair CLR 64.6 62.6 93% 30.1 0.0
11 23:35 Calm 10.00 Fair CLR 64.8 62.6 93% 30.1 0.0
11 23:15 Calm 10.00 Fair CLR 65.3 63.1 93% 30.09 0.0
11 22:55 Calm 10.00 Fair CLR 66.6 64.6 93% 30.09 0.0
11 22:35 Calm 10.00 Fair CLR 65.7 63.5 93% 30.09 0.0
11 22:15 Calm 10.00 Fair CLR 66.9 64.6 92% 30.09 0.0
11 21:55 Calm 10.00 Fair CLR 67.1 64.9 93% 30.09 0.0
11 21:35 Calm 10.00 Fair CLR 69.3 65.7 88% 30.09 0.0
11 21:15 W 5 10.00 Fair CLR 69.6 65.7 87% 30.09 0.0
11 20:55 Calm 10.00 Fair CLR 70.2 65.8 86% 30.09 0.0
11 20:35 Calm 10.00 Fair CLR 70.7 65.5 84% 30.09 0.0
11 20:15 Calm 10.00 Fair CLR 70.3 66.2 87% 30.09 0.0
11 19:55 NW 5 10.00 Fair CLR 70.7 64.6 75.6 70.7 81% 30.09 0.0
11 19:35 N 3 10.00 Fair CLR 73 64.4 74% 30.09 0.0
11 19:15 Calm 10.00 Fair CLR 72.5 63.7 74% 30.09 0.0
11 18:55 Calm 10.00 Fair CLR 72.7 63.9 74% 30.09 0.0
11 18:35 NW 3 10.00 Fair CLR 73.4 64.8 74% 30.09 0.0
11 18:15 NW 5 10.00 Fair CLR 74.3 65.5 74% 30.08 0.0
11 17:55 N 3 10.00 Fair CLR 73.6 64.4 73% 30.09 0.0
11 17:35 N 5 10.00 Fair CLR 73.6 64.8 74% 30.09 0.0
11 17:15 N 6 10.00 Fair CLR 74.3 65.1 73% 30.09 0.0
11 16:55 NW 3 10.00 Fair CLR 73.4 64.2 73% 30.09 0.0
11 16:35 NW 5 10.00 Fair CLR 73.6 65.3 75% 30.1 0.0
11 16:15 NW 6 10.00 Fair CLR 74.7 64.8 71% 30.1 0.0
11 15:55 NW 8 10.00 Fair CLR 75.4 65.1 71% 77 30.1 0.0
11 15:35 W 7 10.00 Fair CLR 74.8 65.1 72% 30.1 0.0
11 15:15 W 8 10.00 Fair CLR 75 65.7 73% 76 30.1 0.0
11 14:55 W 6 10.00 Fair CLR 74.1 64.8 73% 30.1 0.0
11 14:35 NW 7 10.00 Fair CLR 74.3 65.1 73% 30.1 0.0
11 14:15 NW 7 10.00 Fair CLR 74.3 65.5 74% 30.1 0.0
11 13:55 NW 5 10.00 Fair CLR 73.9 65.3 75.2 67.1 75% 30.1 0.0
11 13:35 NW 5 10.00 Fair CLR 73.6 65.5 76% 30.1 0.0
11 13:15 NW 7 10.00 Fair CLR 72.3 64.8 77% 30.1 0.0
11 12:55 NW 5 10.00 Fair CLR 72.9 65.1 77% 30.1 0.0
11 12:35 N 5 10.00 Fair CLR 71.8 65.5 81% 30.1 0.0
11 12:15 N 5 10.00 Fair CLR 72.1 65.5 80% 30.1 0.0
11 11:55 N 7 10.00 Fair CLR 70.9 65.3 83% 30.1 0.0
11 11:35 NW 6 10.00 Fair CLR 71.1 65.5 83% 30.1 0.0
11 11:15 NW 8 10.00 Fair CLR 70.9 65.3 83% 30.1 0.0
11 10:55 NW 6 10.00 Fair CLR 71.8 64.9 79% 30.09 0.0
Date Time (edt) Wind (mph) Vis. (mi.) Weather Sky Cond. Air Dwpt Max. Min. Relative Humidity Wind Chill (°F) Heat Index (°F) altimeter (in) sea level (mb) 1 hr 3 hr 6 hr
6 hour
Temperature (ºF) Pressure Precipitation (in)